Regional Weather Roundup
Issued by NWS

Home | Current Version | Previous Version | Text Only | Print | Product List | Glossary Off
Versions: 1 2 3 4 5 6 7 8 9 10 11 12 13 14 15 16 17 18 19 20 21 22 23 24 25 26 27 28 29 30 31 32 33 34 35 36 37 38 39 40 41 42 43 44 45 46 47 48 49 50

000
ASUS43 KDTX 221701
RWRMI
MICHIGAN HOURLY REGIONAL WEATHER ROUNDUP
NATIONAL WEATHER SERVICE DETROIT/PONTIAC MI
1200 PM EST WED FEB 22 2017

NOTE: "FAIR" INDICATES FEW OR NO CLOUDS BELOW 12,000 FEET WITH NO
SIGNIFICANT WEATHER AND/OR OBSTRUCTION TO VISIBILITY.

MIZ047>049-052>055-059>063-066>070-074>076-081>083-221800-
SOUTHEAST LOWER MICHIGAN

CITY           SKY/WX    TMP DP  RH WIND       PRES   REMARKS
ADRIAN         CLOUDY    57  54  89 W7        29.85S
ALMA           CLOUDY    53  52  97 S8        29.78F FOG
ANN ARBOR      CLOUDY    58  54  86 S7        29.83S FOG
BAD AXE        SUNNY     58  58 100 W13       29.78F
CARO           PTSUNNY   60  53  78 SW12      29.78F
DETROIT CITY   CLOUDY    61  54  77 SW8       29.83F
DETROIT        PTSUNNY   61  54  77 W8        29.84F FOG
FLINT          PTSUNNY   60  53  77 SW8       29.80F
GROSSE ILE     CLOUDY    50  47  89 S8        29.83S FOG
HILLSDALE      CLOUDY    55  52  88 S8        29.83S FOG
HOWELL         CLOUDY    59  52  75 SW7       29.81F

CITY           SKY/WX    TMP DP  RH WIND       PRES   REMARKS
JACKSON        CLOUDY    57  52  83 SW9       29.82S HAZE
LAMBERTVILLE   CLOUDY    64  54  70 SW5       29.83F
LANSING        MOSUNNY   61  51  70 S13       29.79F
LAPEER         CLOUDY    58  55  88 W9        29.81S
MASON          CLOUDY    59  54  83 SW5       29.81F
MONROE         CLOUDY    62  55  79 W12       29.82F
MT. CLEMENS    MOSUNNY   64  54  70 SW8       29.80F HAZE
PONTIAC        CLOUDY    58  51  78 SW8       29.82S
PORT HOPE        N/A     59  52  77 W8        29.75F
PORT HURON     SUNNY     59  52  77 S9        29.82F
TRI CITIES     CLOUDY    54  53  97 SW7       29.79F FOG
MIDLAND        FOG       51  50  97 S3        29.77F VSB 1/2
TROY           CLOUDY    61  52  72 S6        29.84F
SAGINAW HB     CLOUDY    55  52  88 SW12      29.79S FOG
$$
MIZ043>046-050>051-056>058-064>065-071>073-077>080-221800-
SOUTHWEST LOWER MICHIGAN

CITY           SKY/WX    TMP DP  RH WIND       PRES   REMARKS
BATTLE CREEK   CLOUDY    57  54  89 SW10      29.81F FOG
BENTON HARBOR  MOSUNNY   60  53  77 W8        29.78F HAZE
BIG RAPIDS     CLOUDY    53  52  97 S9        29.73F FOG
COLDWATER      CLOUDY    57  54  90 S3        29.82F FOG
FREMONT        CLOUDY    53  53 100 SW12      29.74F FOG
HOLLAND        CLOUDY    55  53  93 SW14G20   29.77F FOG
GRAND RAPIDS   CLOUDY    57  52  83 SW13      29.77F HAZE
IONIA          CLOUDY    55  54  96 SW7       29.78F FOG
KALAMAZOO      CLOUDY    58  51  78 S13       29.81F HAZE
LUDINGTON      CLOUDY    53  52  96 S12G17    29.71S FOG
MARSHALL       CLOUDY    57  54  89 SW12      29.81F FOG
MOUNT PLEASANT CLOUDY    53  53  98 SW8       29.75F FOG
MUSKEGON       FOG       53  52  96 S15G21    29.75F VSB 1/2
SOUTH HAVEN    PTSUNNY   57  56  94 W8        29.78F FOG
$$
MIZ016>042-221800-
NORTHERN LOWER MICHIGAN

CITY           SKY/WX    TMP DP  RH WIND       PRES   REMARKS
ALPENA         MOSUNNY   56  49  77 SW12      29.70F
BEAVER ISLAND  FOG       47  45  95 SW9       29.66R VSB 3/4
BELLAIRE       SUNNY     60  48  66 SW12G17   29.67F
CADILLAC       CLOUDY    54  51  92 SW9       29.70F
CHARLEVOIX     MOSUNNY   57  49  74 S14G22    29.68F
FRANKFORT      MOSUNNY   55  50  84 S8        29.66F
GAYLORD        SUNNY     50  44  80 SW9       29.68F
GRAYLING       CLOUDY    55  51  85 S7        29.71S
HARBOR SPRINGS CLOUDY    53  47  80 SW3       29.66F
HOUGHTON LAKE  CLOUDY    50  49  96 S8        29.73F FOG
MANISTEE       MOSUNNY   58  50  75 S10G21    29.68F
OSCODA         CLOUDY    52  51  97 S13G21    29.73F FOG
PELLSTON       MOSUNNY   56  45  66 VRB7      29.65F
ROGERS CITY    CLOUDY    54  46  74 S10       29.68F
TRAVERSE CITY  PTSUNNY   59  50  72 VRB3G17   29.66F
$$
MIZ007>008-015-221800-
EASTERN UPPER MICHIGAN

CITY           SKY/WX    TMP DP  RH WIND       PRES   REMARKS
KINROSS        CLOUDY    49  41  74 S6        29.66F
MACKINAC ISLAN PTSUNNY   44  37  77 E5        29.65F
NEWBERRY       MOSUNNY   41  40  97 CALM      29.64F FOG
S. S. MARIE    MOSUNNY   42  37  82 E5        29.66F
MUNISING         N/A     45  36  70 CALM      29.61F
$$
MIZ004>006-011>014-085-221800-
CENTRAL UPPER MICHIGAN

CITY           SKY/WX    TMP DP  RH WIND       PRES   REMARKS
MANISTIQUE     FOG       39  38  97 S3        29.64F VSB 1/4
ESCANABA       CLOUDY    42  37  82 E8        29.61F
MENOMINEE      CLOUDY    52  41  66 SW9       29.62F
SAWYER-GWINN   CLOUDY    45  39  81 CALM      29.61F
$$
MIZ001>003-009>011-084-221800-
WESTERN UPPER MICHIGAN

CITY           SKY/WX    TMP DP  RH WIND       PRES   REMARKS
IRON MOUNTAIN  PTSUNNY   51  36  56 NE7       29.57F
HOUGHTON       CLOUDY    40  34  79 NW3       29.60F
COPPER HARBOR    N/A     36  34  92 N13       29.62S WCI  27
IRONWOOD       CLOUDY    46  40  79 E3        29.60F
$$

ABBREVIATIONS USED IN REMARKS
   TC - TEMPERATURE IN CELSIUS
  WCI - WIND CHILL INDEX
   HX - HEAT INDEX
  VSB - VISIBILITY





USA.gov is the U.S. government's official web portal to all federal, state and local government web resources and services.